Location: Hamilton
(37.7830°S, 175.2830°E)
Time: 19:59:09
(UTC+12:00)

Lacrosse 5 - Pass Details

Date: 24 January 2019
Orbit: 717 x 722 km, 57.0° (Epoch: 21 April)

Event Time Altitude Azimuth Distance (km) Brightness Sun altitude
Rises 21:09:24 0° 219° (SW) 3,153 6.8 -6.3°
Reaches altitude 10° 21:11:50 10° 215° (SW) 2,227 5.7 -6.7°
Maximum altitude 21:16:54 59° 135° (SE) 839 2.2 -7.5°
Enters shadow 21:21:51 10° 56° (NE) 2,183 3.7 -8.4°
